CZ-6A DEB

Satellite information

Favourite Embed

Satellite Type and Status

DEBRISIN ORBIT

Key statistics

Satellite CZ-6A DEB at a glance.

Uptime

912

Days in orbit

Revolutions

≈ 14.1

Per day

Orbit

SSO

Sun Synchronous Orbit

Inclination

98.8

Latest

Satellite identification and parameters

Extended collection of information and parameters for CZ-6A DEB.

Object identification

Identified? True

Debris? True

Object name: CZ-6A DEB

International designator: 2022-151BK

Object number (NORAD): 54316

Object ID (CCSDS): 54316

Country: PEOPLES REPUBLIC OF CHINA (PRC)

Current information (Y/N): Y

RCS size: SMALL

Orbital parameters

Period: 101.988 minutes

Inclination: 98.8114 deg

SMA: 7230.893 km

Apoapsis: 882.354 km

Periapsis: 823.162 km

RAAN: 133.1367 deg

Eccentricy: 0.004093

Argument of periapsis: 22.895 deg

Mean anomaly: 337.4035 deg

Mean motion: 14.11935425 rev/day

Mean motion (dot): 0.00000783 rev/day2

B* drag term: 0.00044874 1/REarth

Two-line elements (TLE)

Creation date: May 11, 2025, 2:40 a.m.

Reference frame: TEME

Reference center: EARTH

Epoch: May 10, 2025, 10:30 p.m. UTC

TLE line 0: 0 CZ-6A DEB

TLE line 1: 1 54316U 22151BK 25130.93756005 .00000783 00000-0 44874-3 0 9994

TLE line 2: 2 54316 98.8114 133.1367 0040930 22.8950 337.4035 14.11935425127862

Live tracking on map

Real-time ground track for satellite CZ-6A DEB.

In-orbit conjunctions

A list of the most updated potential collisions computed for object CZ-6A DEB.

Target Orbit TCA Probability of collision Miss distance Type
FENGYUN 1C DEB SSO 2024-10-13 16:09:25 0.0001828583 108.0 (m) DEBRIS
FENGYUN 1C DEB SSO 2024-06-05 18:21:16 0.0001012173 75.0 (m) DEBRIS

Associated space launch

Chinese satellite reported for atmospheric/ocean/environmental/spatial parameter research purposes, details TBD.

CZ-6A DEB was lifted into orbit during the mission ‘Long March 6A | Yunhai 3’, on board a Long March 6A space rocket.

The launch took place on Nov. 11, 2022, 10:52 p.m. from Launch Complex 9A.

For more information about the launch, click the button.

Launch to space Long March 6A | Yunhai 3
Long March 6A | Yunhai 3

Agency: N/A

Status: Launch Successful

Launch date: Nov. 11, 2022, 10:52 p.m. UTC

Rocket: Long March 6A

Launch pad: Launch Complex 9A

Location: Taiyuan Satellite Launch Center, People's Republic of China

...

Latest news about this satellite

There are no fresh news available about this satellite. Check back as we update our databases every day.


Newsletter sign-up

Weekly statistics, charts and insights to help you stay on top of the space industry.